Weather in Bessonovka

Russia / Belgorod Oblast     50°31′28″N   36°18′09″E
temp.,
°C
wind,
m/s
gust,
m/s
humid.,
%
clouds,
%
prec.,
mm/h
press.,
hPa
HPBL,
m
26 july, mon
mon2600:00+17e45645 0.0 102276
03:00+16e356936 0.0 102272
06:00+16e36670 0.0 1023110
09:00+24e46430 0.0 1022498
12:00+28e44330 0.0 10222141
15:00+29e44310 0.0 10212591
18:00+27ene55370 0.0 1021898
21:00+21ene48500 0.0 1022109
27 july, tue
tue2700:00+19e34525 0.0 102256
03:00+17e345923 0.0 102256
06:00+18e355773 0.0 102388
09:00+24ese354395 0.0 1022394
12:00+28ese33315 0.0 10211856
15:00+30ese22285 0.0 10202551
18:00+29ene213299 0.0 10192138
21:00+22ese484829 0.0 1019114
28 july, wed
wed2800:00+22se4104572 0.0 1019204
03:00+20sse485548 0.0 1019116
06:00+21sse245617 0.0 101878
09:00+26s454521 0.0 1017505
12:00+28s5739100 0.0 10161012
15:00+21sw3878100 0.5 1016244
18:00+26s6959100 0.0 10141022
21:00+19sw1389100 3.6 101558
29 july, thu
thu2900:00+19ssw3492100 1.3 101393
03:00+17w369316 1.3 1013115
06:00+18wnw25924 0.0 1013100
09:00+24w346785 0.0 1013419
12:00+29w444784 0.0 10131433
15:00+31wnw44375 0.0 10112203
18:00+29n55411 0.0 10111173
21:00+23n33620 0.0 101235
30 july, fri
fri3000:00+21e22675 0.0 101214
03:00+21ese3368100 0.0 101245
06:00+22e2364100 0.0 101257
09:00+27ese455113 0.0 1012509
12:00+29s354482 0.0 10111501
15:00+27s245683 0.4 1010131
18:00+24e597238 0.9 1010175
21:00+21ese5118753 1.6 1011227